7 * 24
多渠道服务支持
STARLINK-2054是美国太空探索技术公司(SpaceX)星链(Starlink)星座中的卫星,于2021年2月16日发射。它属于低轨卫星,运行在轨道倾角约53度、高度约475公里近地轨道,是星链全球卫星互联网项目的组成部分,旨在为全球偏远地区等提供高速互联网接入服务,截至2026年该卫星仍在轨正常工作。
美国
(US)
| 数据来源 | 国际轨道数据 |
| 星历时间: | 2025-02-02T01:16:40+0800 轨道信息已过期477天 |
| 半长轴: | 6541.548km |
| 偏心率: | 0.0002149 |
| 轨道倾角: | 53.027° |
| 近地点辐角 | 92.240° |
| 升交点赤经 | 21.370° |
| 平近点角 | 67.578° |
| 近地点: | 162.007km |
| 远地点: | 164.819km |
| 周期: | 87.757分钟 |
| 每日圈数: | 16.408996 |